Hourly Data Report for October 28, 2016

All times are specified in Local Standard Time (LST). Add 1 hour to adjust for Daylight Saving Time where and when it is observed.

ARVIAT A
NUNAVUT

61°05'38.000" N
94°04'18.000" W
10.40 m
2300427
71174
YEK

Related Data

No related data is available for this station

Download Data

Hourly Data (October 2016)
Hourly Data Report for October 28, 2016
Temp Definition
°C
Dew Point Temp Definition
°C
Rel Hum Definition
%
Wind Dir Definition
10's deg

Wind Spd Definition
km/h
Visibility Definition
km
Stn Press Definition
kPa
Hmdx Definition


Wind Chill Definition


Weather Definition


TIME
00:00 Legend Double Dagger -8.7 -9.0 98 35 21 16.1 101.38   -16 LegendNANA
01:00 Legend Double Dagger -8.3 -8.6 98 34 24 16.1 101.38   -16 LegendNANA
02:00 Legend Double Dagger -7.8 -8.1 98 35 26 16.1 101.44   -16 LegendNANA
03:00 Legend Double Dagger -7.5 -8.0 96 35 26 16.1 101.48   -16 LegendNANA
04:00 Legend Double Dagger -7.7 -8.4 95 36 30 16.1 101.55   -17 LegendNANA
05:00 Legend Double Dagger -8.7 -10.4 88 36 30 16.1 101.60   -18 LegendNANA
06:00 Legend Double Dagger -11.7 -12.6 93 35 30 16.1 101.67   -22 LegendNANA
07:00 Legend Double Dagger -12.6 -13.6 92 35 32 16.1 101.70   -23 LegendNANA
08:00 Legend Double Dagger -13.0 -14.4 89 35 32 16.1 101.76   -24 LegendNANA
09:00 Legend Double Dagger -13.2 -14.7 89 35 28 16.1 101.78   -23 LegendNANA
10:00 Legend Double Dagger -13.6 -15.2 88 34 24 16.1 101.81   -23 LegendNANA
11:00 Legend Double Dagger -13.8 -15.5 87 34 21 16.1 101.83   -23 LegendNANA
12:00 Legend Double Dagger -12.9 -15.2 83 34 18 16.1 101.83   -21 LegendNANA
13:00 Legend Double Dagger -12.6 -14.8 84 33 21 16.1 101.83   -21 LegendNANA
14:00 Legend Double Dagger -12.3 -14.5 84 33 18 16.1 101.82   -20 LegendNANA
15:00 Legend Double Dagger -11.5 -13.4 86 32 17 16.1 101.80   -19 LegendNANA
16:00 Legend Double Dagger -11.2 -13.1 86 31 9 16.1 101.73   -16 LegendNANA
17:00 Legend Double Dagger -10.9 -13.1 84 31 15 16.1 101.70   -18 Snow
18:00 Legend Double Dagger -10.9 -12.8 86 25 8 16.1 101.60   -16 LegendNANA
19:00 Legend Double Dagger -10.9 -12.5 88 24 8 16.1 101.53   -16 LegendNANA
20:00 Legend Double Dagger -10.5 -12.6 85 22 15 12.9 101.40   -17 Snow
21:00 Legend Double Dagger -8.7 -12.8 73 21 22 16.1 101.24   -17 Snow
22:00 Legend Double Dagger -7.8 -9.8 86 21 32 6.4 101.07   -17 Snow
23:00 Legend Double Dagger -7.6 -8.3 95 22 30 6.4 100.87   -16 Snow

Notes on Data Quality.

Legend

  • E = Estimated
  • M = Missing
  • NA = Not Available
  • ‡ = Partner data that is not subject to review by the National Climate Archives
Date modified: